Location: Unspecified
(46.0725°N, 13.7344°E)
Time: 09:15:23
(UTC+02:00)

Cosmos 2058 - Pass Details

Date: 20 June 2024
Orbit: 545 x 564 km, 82.5° (Epoch: 17 July)

Event Time Altitude Azimuth Distance (km) Brightness Sun altitude
Exits shadow 03:01:07 11° 149° (SSE) 1,753 5.1 -15.8°
Maximum altitude 03:04:24 29° 90° (E) 1,034 4.5 -15.5°
Drops below altitude 10° 03:07:59 10° 30° (NNE) 1,863 6.9 -15.2°
Sets 03:10:21 0° 19° (NNE) 2,768 8.2 -15.0°
